COSMOS 2547 (705K)

Last updated on Sat Aug 15 2026 00:03:22 GMT+0000 (Coordinated Universal Time)

1 46805U 20075A 26226.13327161 .00000023 00000+0 00000+0 0 9992 2 46805 64.6021 190.5419 0009164 238.7893 121.0900 2.13099772 45140
UTC large
Height (km)
Speed (km/s)
/
Latitude / Longitude
Inclination (degrees)
Orbital Period (minutes)
Azimuth
Elevation
Range (km)
Doppler Factor

Next 0 passes for location: London (51.5072 / 0.1276)

No passes found over London.
COSMOS 2547 (705K)